| time (UTC) | temp F | wind direction | speed MPH | gust MPH | rain 1hr in | rain 24hr in | rain mn in | humidity % | barometer mb |
| 20260509113103 | 47 | 307 | 4.0 | 0.0 | 0.00 | 0.00 | 0.00 | 71 | 1018.1 |
| 20260509112526 | 47 | 324 | 4.0 | 6.0 | 0.00 | 0.00 | 0.00 | 72 | 1018.4 |
| 20260509112034 | 47 | 274 | 3.0 | 6.0 | 0.00 | 0.00 | 0.00 | 72 | 1018.4 |
| 20260509111534 | 46 | 351 | 2.0 | 6.0 | 0.00 | 0.00 | 0.00 | 72 | 1018.4 |
| 20260509111037 | 47 | 313 | 3.0 | 4.0 | 0.00 | 0.00 | 0.00 | 73 | 1018.4 |
| 20260509110537 | 47 | 308 | 0.0 | 0.0 | 0.00 | 0.00 | 0.00 | 77 | 1018.1 |
| 20260509110024 | 46 | 359 | 0.0 | 2.0 | 0.00 | 0.00 | 0.00 | 77 | 1017.9 |
| 20260509105529 | 46 | 359 | 0.0 | 3.0 | 0.00 | 0.00 | 0.00 | 79 | 1018.0 |
| 20260509105031 | 46 | 289 | 1.0 | 3.0 | 0.00 | 0.00 | 0.00 | 80 | 1018.1 |
| 20260509104535 | 45 | 323 | 0.0 | 0.0 | 0.00 | 0.00 | 0.00 | 82 | 1018.1 |
| 20260509104101 | 45 | 272 | 0.0 | 2.0 | 0.00 | 0.00 | 0.00 | 83 | 1017.9 |
| 20260509103544 | 45 | 272 | 1.0 | 2.0 | 0.00 | 0.00 | 0.00 | 84 | 1017.7 |
| 20260509103044 | 44 | 272 | 1.0 | 3.0 | 0.00 | 0.00 | 0.00 | 85 | 1017.6 |
| 20260509102607 | 44 | 293 | 2.0 | 4.0 | 0.00 | 0.00 | 0.00 | 85 | 1017.5 |
| 20260509102048 | 43 | 293 | 2.0 | 4.0 | 0.00 | 0.00 | 0.00 | 86 | 1017.4 |
| 20260509101530 | 43 | 300 | 0.0 | 3.0 | 0.00 | 0.00 | 0.00 | 87 | 1017.4 |
| 20260509101035 | 43 | 300 | 1.0 | 3.0 | 0.00 | 0.00 | 0.00 | 87 | 1017.4 |
| 20260509100543 | 43 | 304 | 1.0 | 2.0 | 0.00 | 0.00 | 0.00 | 87 | 1017.4 |
| 20260509100024 | 43 | 304 | 1.0 | 2.0 | 0.00 | 0.00 | 0.00 | 86 | 1017.2 |
| 20260509095530 | 44 | 288 | 0.0 | 2.0 | 0.00 | 0.00 | 0.00 | 87 | 1017.1 |
| 20260509095034 | 44 | 288 | 1.0 | 3.0 | 0.00 | 0.00 | 0.00 | 86 | 1017.1 |
| 20260509094557 | 44 | 288 | 2.0 | 3.0 | 0.00 | 0.00 | 0.00 | 85 | 1017.1 |
| 20260509094038 | 44 | 266 | 1.0 | 2.0 | 0.00 | 0.00 | 0.00 | 84 | 1017.0 |
| 20260509093540 | 44 | 213 | 0.0 | 4.0 | 0.00 | 0.00 | 0.00 | 84 | 1016.9 |
| 20260509093103 | 45 | 212 | 3.0 | 4.0 | 0.00 | 0.00 | 0.00 | 83 | 1016.7 |
| 20260509092545 | 45 | 247 | 0.0 | 0.0 | 0.00 | 0.00 | 0.00 | 82 | 1016.6 |
| 20260509092030 | 45 | 257 | 0.0 | 3.0 | 0.00 | 0.00 | 0.00 | 81 | 1016.3 |
| 20260509091533 | 45 | 257 | 1.0 | 3.0 | 0.00 | 0.00 | 0.00 | 80 | 1016.1 |
| 20260509091037 | 45 | 269 | 2.0 | 3.0 | 0.00 | 0.00 | 0.00 | 80 | 1016.1 |
| 20260509090539 | 45 | 281 | 2.0 | 3.0 | 0.00 | 0.00 | 0.00 | 80 | 1016.1 |
| 20260509090105 | 46 | 314 | 1.0 | 4.0 | 0.00 | 0.00 | 0.00 | 80 | 1016.0 |
| 20260509085549 | 46 | 283 | 3.0 | 4.0 | 0.00 | 0.00 | 0.00 | 80 | 1016.0 |
| 20260509085030 | 46 | 292 | 2.0 | 4.0 | 0.00 | 0.00 | 0.00 | 80 | 1016.0 |
| 20260509084536 | 46 | 295 | 1.0 | 5.0 | 0.00 | 0.00 | 0.00 | 80 | 1015.9 |
| 20260509084043 | 46 | 293 | 3.0 | 6.0 | 0.00 | 0.00 | 0.00 | 79 | 1015.9 |
| 20260509083547 | 46 | 317 | 2.0 | 6.0 | 0.00 | 0.00 | 0.00 | 80 | 1015.9 |
| 20260509083028 | 46 | 334 | 2.0 | 5.0 | 0.00 | 0.00 | 0.00 | 80 | 1015.8 |
| 20260509082613 | 46 | 339 | 3.0 | 6.0 | 0.00 | 0.00 | 0.00 | 80 | 1015.8 |
| 20260509082056 | 47 | 308 | 2.0 | 6.0 | 0.00 | 0.00 | 0.00 | 80 | 1015.9 |
| 20260509081537 | 47 | 320 | 3.0 | 5.0 | 0.00 | 0.00 | 0.00 | 80 | 1015.9 |
| 20260509081040 | 47 | 360 | 2.0 | 6.0 | 0.00 | 0.00 | 0.00 | 80 | 1015.9 |
| 20260509080541 | 47 | 344 | 2.0 | 7.0 | 0.00 | 0.16 | 0.00 | 80 | 1015.8 |
| 20260509080045 | 46 | 343 | 3.0 | 7.0 | 0.00 | 0.16 | 0.00 | 81 | 1015.9 |
| 20260509075527 | 46 | 342 | 3.0 | 6.0 | 0.00 | 0.16 | 0.00 | 83 | 1015.9 |
| 20260509075031 | 46 | 337 | 2.0 | 5.0 | 0.00 | 0.16 | 0.00 | 85 | 1015.9 |
| 20260509074535 | 45 | 332 | 1.0 | 3.0 | 0.00 | 0.16 | 0.00 | 85 | 1015.9 |
| 20260509074057 | 46 | 311 | 0.0 | 0.0 | 0.00 | 0.16 | 0.00 | 85 | 1015.9 |
| 20260509073558 | 46 | 309 | 0.0 | 0.0 | 0.00 | 0.16 | 0.00 | 85 | 1016.0 |
| 20260509073040 | 46 | 309 | 0.0 | 0.0 | 0.00 | 0.16 | 0.00 | 86 | 1016.1 |
| 20260509072528 | 45 | 309 | 0.0 | 0.0 | 0.00 | 0.16 | 0.00 | 86 | 1016.0 |
| 20260509072031 | 45 | 303 | 0.0 | 0.0 | 0.00 | 0.16 | 0.00 | 85 | 1016.0 |
| 20260509071534 | 45 | 303 | 0.0 | 0.0 | 0.00 | 0.16 | 0.00 | 85 | 1016.0 |
| 20260509071057 | 46 | 303 | 0.0 | 0.0 | 0.00 | 0.16 | 0.00 | 85 | 1015.9 |
| 20260509070538 | 46 | 303 | 0.0 | 0.0 | 0.00 | 0.39 | 0.00 | 84 | 1015.9 |
| 20260509070046 | 46 | 304 | 0.0 | 1.0 | 0.00 | 0.39 | 0.00 | 84 | 1016.0 |
| 20260509065528 | 46 | 309 | 1.0 | 1.0 | 0.00 | 0.39 | 0.00 | 84 | 1016.0 |
| 20260509065033 | 46 | 314 | 0.0 | 0.0 | 0.00 | 0.39 | 0.00 | 84 | 1016.1 |
| 20260509064537 | 46 | 314 | 0.0 | 0.0 | 0.00 | 0.39 | 0.00 | 83 | 1016.0 |
| 20260509064101 | 46 | 314 | 0.0 | 0.0 | 0.00 | 0.39 | 0.00 | 83 | 1015.8 |
| 20260509063543 | 47 | 314 | 0.0 | 3.0 | 0.00 | 0.39 | 0.00 | 83 | 1015.6 |
| 20260509063026 | 47 | 314 | 0.0 | 3.0 | 0.00 | 0.39 | 0.00 | 82 | 1015.8 |
| 20260509062612 | 47 | 315 | 2.0 | 5.0 | 0.00 | 0.39 | 0.00 | 82 | 1015.8 |
| 20260509062034 | 47 | 283 | 3.0 | 4.0 | 0.00 | 0.39 | 0.00 | 82 | 1015.6 |
| 20260509061537 | 47 | 290 | 2.0 | 7.0 | 0.00 | 0.39 | 0.00 | 81 | 1015.6 |
| 20260509061025 | 48 | 256 | 4.0 | 7.0 | 0.00 | 0.39 | 0.00 | 80 | 1015.4 |
| 20260509060528 | 48 | 283 | 3.0 | 5.0 | 0.00 | 0.63 | 0.00 | 79 | 1015.4 |
| 20260509060037 | 48 | 324 | 2.0 | 6.0 | 0.00 | 0.63 | 0.00 | 79 | 1015.3 |
| 20260509055603 | 48 | 309 | 4.0 | 6.0 | 0.00 | 0.63 | 0.00 | 80 | 1015.1 |
| 20260509055043 | 48 | 327 | 2.0 | 4.0 | 0.00 | 0.63 | 0.00 | 79 | 1014.8 |
| 20260509054527 | 48 | 360 | 2.0 | 3.0 | 0.00 | 0.63 | 0.00 | 79 | 1014.3 |
| 20260509054034 | 48 | 347 | 2.0 | 3.0 | 0.00 | 0.63 | 0.00 | 79 | 1014.3 |
| 20260509053539 | 48 | 338 | 1.0 | 3.0 | 0.00 | 0.63 | 0.00 | 79 | 1014.4 |
| 20260509053045 | 48 | 1 | 3.0 | 3.0 | 0.00 | 0.63 | 0.00 | 78 | 1014.5 |
| 20260509052526 | 49 | 1 | 2.0 | 4.0 | 0.00 | 0.63 | 0.00 | 78 | 1014.6 |
| 20260509052029 | 49 | 354 | 2.0 | 4.0 | 0.00 | 0.63 | 0.00 | 77 | 1014.8 |
| 20260509051535 | 49 | 1 | 2.0 | 4.0 | 0.00 | 0.63 | 0.00 | 77 | 1014.9 |
| 20260509051058 | 49 | 344 | 2.0 | 4.0 | 0.00 | 0.63 | 0.00 | 76 | 1014.7 |
| 20260509050524 | 49 | 358 | 3.0 | 4.0 | 0.00 | 1.18 | 0.00 | 76 | 1014.8 |
| 20260509050028 | 49 | 359 | 1.0 | 3.0 | 0.00 | 1.18 | 0.00 | 76 | 1014.8 |
| 20260509045533 | 49 | 326 | 1.0 | 3.0 | 0.00 | 1.18 | 0.00 | 76 | 1014.8 |
| 20260509045036 | 49 | 347 | 2.0 | 3.0 | 0.00 | 1.18 | 0.00 | 76 | 1014.7 |
| 20260509044540 | 50 | 1 | 2.0 | 3.0 | 0.00 | 1.18 | 0.00 | 75 | 1014.8 |
| 20260509044042 | 50 | 337 | 2.0 | 4.0 | 0.00 | 1.18 | 0.00 | 75 | 1014.8 |
| 20260509043526 | 50 | 344 | 2.0 | 5.0 | 0.00 | 1.18 | 0.00 | 74 | 1014.6 |
| 20260509043028 | 50 | 348 | 2.0 | 5.0 | 0.00 | 1.18 | 0.00 | 74 | 1014.5 |
| 20260509042551 | 50 | 4 | 3.0 | 5.0 | 0.00 | 1.18 | 0.00 | 74 | 1014.5 |
| 20260509042033 | 50 | 359 | 2.0 | 3.0 | 0.00 | 1.18 | 0.00 | 74 | 1014.5 |
| 20260509041540 | 50 | 353 | 1.0 | 3.0 | 0.00 | 1.18 | 0.00 | 74 | 1014.5 |
| 20260509041104 | 50 | 352 | 1.0 | 3.0 | 0.00 | 1.18 | 0.00 | 74 | 1014.5 |
| 20260509040524 | 50 | 342 | 0.0 | 2.0 | 0.00 | 1.54 | 0.00 | 73 | 1014.6 |
| 20260509040032 | 50 | 338 | 0.0 | 2.0 | 0.00 | 1.54 | 0.00 | 73 | 1014.3 |
| 20260509035536 | 50 | 325 | 1.0 | 2.0 | 0.00 | 1.54 | 0.00 | 73 | 1014.2 |
| 20260509035043 | 50 | 308 | 1.0 | 4.0 | 0.00 | 1.54 | 0.00 | 73 | 1014.2 |
| 20260509034527 | 50 | 337 | 2.0 | 5.0 | 0.00 | 1.54 | 0.00 | 72 | 1014.1 |
| 20260509034030 | 51 | 348 | 2.0 | 5.0 | 0.00 | 1.54 | 0.00 | 72 | 1013.9 |
| 20260509033532 | 51 | 355 | 2.0 | 4.0 | 0.00 | 1.54 | 0.00 | 72 | 1013.8 |
| 20260509033036 | 51 | 328 | 2.0 | 3.0 | 0.00 | 1.54 | 0.00 | 71 | 1013.9 |
| 20260509032558 | 51 | 359 | 1.0 | 5.0 | 0.00 | 1.54 | 0.00 | 71 | 1013.9 |
| 20260509032037 | 51 | 284 | 2.0 | 5.0 | 0.00 | 1.54 | 0.00 | 71 | 1014.1 |
| 20260509031542 | 51 | 328 | 1.0 | 4.0 | 0.00 | 1.54 | 0.00 | 71 | 1014.1 |
| 20260509031024 | 51 | 345 | 1.0 | 3.0 | 0.00 | 1.54 | 0.00 | 71 | 1014.1 |
| 20260509030548 | 51 | 356 | 2.0 | 4.0 | 0.00 | 1.54 | 0.39 | 70 | 1014.0 |
| 20260509030035 | 52 | 289 | 2.0 | 4.0 | 0.00 | 1.54 | 0.39 | 70 | 1013.9 |
| 20260509025540 | 52 | 1 | 2.0 | 4.0 | 0.00 | 1.54 | 0.39 | 69 | 1013.8 |
| 20260509025024 | 52 | 353 | 2.0 | 4.0 | 0.00 | 1.54 | 0.39 | 69 | 1013.8 |
| 20260509024534 | 52 | 336 | 2.0 | 4.0 | 0.00 | 1.54 | 0.39 | 69 | 1013.9 |
| 20260509024036 | 52 | 359 | 2.0 | 4.0 | 0.00 | 1.54 | 0.39 | 69 | 1013.8 |
| 20260509023538 | 52 | 359 | 2.0 | 4.0 | 0.00 | 1.54 | 0.39 | 69 | 1013.6 |
| 20260509023042 | 52 | 331 | 3.0 | 4.0 | 0.00 | 1.54 | 0.39 | 68 | 1013.4 |
| 20260509022544 | 52 | 330 | 1.0 | 4.0 | 0.00 | 1.54 | 0.39 | 68 | 1013.5 |
| 20260509022046 | 52 | 333 | 0.0 | 5.0 | 0.00 | 1.54 | 0.39 | 68 | 1013.5 |
| 20260509021527 | 53 | 338 | 2.0 | 6.0 | 0.00 | 1.54 | 0.39 | 68 | 1013.4 |
| 20260509021030 | 53 | 356 | 3.0 | 6.0 | 0.00 | 1.54 | 0.39 | 67 | 1013.2 |
| 20260509020555 | 53 | 1 | 3.0 | 5.0 | 0.00 | 1.54 | 0.39 | 67 | 1013.4 |
| 20260509020058 | 53 | 359 | 3.0 | 5.0 | 0.00 | 1.54 | 0.39 | 66 | 1013.4 |
| 20260509015540 | 53 | 359 | 3.0 | 5.0 | 0.00 | 1.54 | 0.39 | 66 | 1013.6 |
| 20260509015043 | 53 | 359 | 3.0 | 5.0 | 0.00 | 1.54 | 0.39 | 65 | 1013.6 |
| 20260509014525 | 53 | 340 | 3.0 | 6.0 | 0.00 | 1.54 | 0.39 | 66 | 1013.7 |
| 20260509014029 | 54 | 299 | 3.0 | 6.0 | 0.00 | 1.54 | 0.39 | 65 | 1013.5 |
| 20260509013555 | 54 | 338 | 1.0 | 4.0 | 0.00 | 1.54 | 0.39 | 65 | 1013.3 |
| 20260509013040 | 54 | 338 | 2.0 | 3.0 | 0.00 | 1.54 | 0.39 | 66 | 1013.3 |
| 20260509012541 | 54 | 359 | 1.0 | 6.0 | 0.00 | 1.54 | 0.39 | 65 | 1013.3 |
| 20260509012044 | 54 | 295 | 2.0 | 6.0 | 0.00 | 1.54 | 0.39 | 63 | 1013.2 |
| 20260509011544 | 54 | 329 | 2.0 | 5.0 | 0.00 | 1.54 | 0.39 | 64 | 1013.3 |
| 20260509011047 | 55 | 347 | 3.0 | 4.0 | 0.00 | 1.54 | 0.39 | 64 | 1013.4 |
| 20260509010527 | 55 | 9 | 2.0 | 7.0 | 0.00 | 1.54 | 0.39 | 62 | 1013.4 |
| 20260509010053 | 55 | 359 | 2.0 | 7.0 | 0.00 | 1.54 | 0.39 | 62 | 1013.3 |
| 20260509005555 | 55 | 331 | 1.0 | 6.0 | 0.00 | 1.54 | 0.39 | 62 | 1013.4 |
| 20260509005036 | 55 | 359 | 2.0 | 8.0 | 0.00 | 1.54 | 0.39 | 61 | 1013.1 |
| 20260509004539 | 55 | 323 | 5.0 | 11.0 | 0.00 | 1.54 | 0.39 | 60 | 1013.0 |
| 20260509004039 | 55 | 297 | 5.0 | 11.0 | 0.00 | 1.54 | 0.39 | 61 | 1012.8 |
| 20260509003546 | 56 | 340 | 3.0 | 6.0 | 0.00 | 1.54 | 0.39 | 61 | 1012.7 |
| 20260509003027 | 56 | 337 | 4.0 | 8.0 | 0.00 | 1.54 | 0.39 | 61 | 1012.7 |
| 20260509002551 | 56 | 311 | 3.0 | 9.0 | 0.00 | 1.54 | 0.39 | 61 | 1012.7 |
| 20260509002034 | 56 | 330 | 5.0 | 9.0 | 0.00 | 1.54 | 0.39 | 60 | 1012.6 |
| 20260509001541 | 56 | 309 | 5.0 | 9.0 | 0.00 | 1.54 | 0.39 | 59 | 1012.6 |
| 20260509001043 | 56 | 342 | 4.0 | 9.0 | 0.00 | 1.54 | 0.39 | 59 | 1012.8 |
| 20260509000525 | 56 | 4 | 5.0 | 9.0 | 0.00 | 1.54 | 0.39 | 59 | 1012.8 |
| 20260509000051 | 56 | 346 | 4.0 | 9.0 | 0.00 | 1.54 | 0.39 | 59 | 1012.8 |
| 20260508235537 | 56 | 340 | 3.0 | 8.0 | 0.00 | 1.54 | 0.39 | 59 | 1012.7 |
| 20260508235039 | 56 | 10 | 4.0 | 9.0 | 0.00 | 1.54 | 0.39 | 59 | 1012.7 |
| 20260508234543 | 56 | 312 | 4.0 | 10.0 | 0.00 | 1.54 | 0.39 | 59 | 1012.6 |
| 20260508234104 | 57 | 352 | 5.0 | 9.0 | 0.00 | 1.54 | 0.39 | 58 | 1012.5 |
| 20260508233526 | 57 | 313 | 4.0 | 8.0 | 0.00 | 1.54 | 0.39 | 58 | 1012.5 |
| 20260508233030 | 57 | 3 | 4.0 | 9.0 | 0.00 | 1.54 | 0.39 | 58 | 1012.5 |
| 20260508232530 | 57 | 5 | 4.0 | 9.0 | 0.00 | 1.54 | 0.39 | 57 | 1012.4 |
| 20260508232034 | 57 | 317 | 4.0 | 10.0 | 0.00 | 1.54 | 0.39 | 57 | 1012.3 |
| 20260508231541 | 57 | 329 | 5.0 | 10.0 | 0.00 | 1.54 | 0.39 | 57 | 1012.1 |
| 20260508231027 | 57 | 10 | 5.0 | 12.0 | 0.00 | 1.54 | 0.39 | 57 | 1012.2 |
| 20260508230530 | 57 | 345 | 5.0 | 12.0 | 0.00 | 1.54 | 0.39 | 57 | 1012.2 |
| 20260508230038 | 57 | 284 | 4.0 | 8.0 | 0.00 | 1.54 | 0.39 | 58 | 1012.2 |
| 20260508225541 | 57 | 337 | 3.0 | 9.0 | 0.00 | 1.54 | 0.39 | 59 | 1012.0 |
| 20260508225044 | 57 | 11 | 4.0 | 11.0 | 0.00 | 1.54 | 0.39 | 60 | 1011.9 |
| 20260508224528 | 57 | 354 | 2.0 | 8.0 | 0.00 | 1.54 | 0.39 | 61 | 1011.7 |
| 20260508224052 | 57 | 358 | 3.0 | 7.0 | 0.00 | 1.54 | 0.39 | 60 | 1011.4 |
| 20260508223533 | 57 | 343 | 4.0 | 7.0 | 0.00 | 1.54 | 0.39 | 60 | 1011.3 |
| 20260508223037 | 57 | 359 | 4.0 | 8.0 | 0.00 | 1.54 | 0.39 | 60 | 1011.4 |
| 20260508222542 | 57 | 9 | 5.0 | 9.0 | 0.00 | 1.54 | 0.39 | 60 | 1011.6 |
| 20260508222106 | 57 | 335 | 5.0 | 9.0 | 0.00 | 1.54 | 0.39 | 59 | 1011.7 |
| 20260508221529 | 57 | 360 | 5.0 | 9.0 | 0.00 | 1.54 | 0.39 | 59 | 1011.7 |
| 20260508221032 | 57 | 327 | 5.0 | 9.0 | 0.00 | 1.54 | 0.39 | 59 | 1011.7 |
| 20260508220536 | 57 | 332 | 4.0 | 11.0 | 0.00 | 1.54 | 0.39 | 58 | 1011.6 |
| 20260508220041 | 57 | 323 | 5.0 | 11.0 | 0.00 | 1.54 | 0.39 | 58 | 1011.3 |
| 20260508215529 | 57 | 360 | 4.0 | 6.0 | 0.00 | 1.54 | 0.39 | 58 | 1011.2 |
| 20260508215031 | 57 | 303 | 4.0 | 16.0 | 0.00 | 1.54 | 0.39 | 57 | 1011.1 |
| 20260508214533 | 57 | 2 | 5.0 | 16.0 | 0.00 | 1.54 | 0.39 | 57 | 1011.0 |
| 20260508214038 | 57 | 6 | 5.0 | 9.0 | 0.00 | 1.54 | 0.39 | 57 | 1010.9 |
| 20260508213543 | 57 | 5 | 4.0 | 9.0 | 0.00 | 1.54 | 0.39 | 56 | 1010.8 |
| 20260508213106 | 57 | 332 | 5.0 | 9.0 | 0.00 | 1.54 | 0.39 | 56 | 1010.8 |
| 20260508212544 | 58 | 304 | 4.0 | 9.0 | 0.00 | 1.54 | 0.39 | 55 | 1010.8 |
| 20260508212025 | 58 | 313 | 3.0 | 9.0 | 0.00 | 1.54 | 0.39 | 54 | 1010.7 |
| 20260508211532 | 58 | 1 | 5.0 | 10.0 | 0.00 | 1.54 | 0.39 | 54 | 1010.6 |
| 20260508211055 | 58 | 334 | 5.0 | 14.0 | 0.00 | 1.54 | 0.39 | 53 | 1010.5 |
| 20260508210538 | 58 | 307 | 6.0 | 14.0 | 0.00 | 1.54 | 0.39 | 53 | 1010.5 |
| 20260508205543 | 59 | 344 | 6.0 | 12.0 | 0.00 | 1.54 | 0.39 | 52 | 1010.5 |
| 20260508205027 | 59 | 4 | 6.0 | 12.0 | 0.00 | 1.54 | 0.39 | 51 | 1010.3 |
| 20260508204534 | 59 | 295 | 6.0 | 18.0 | 0.00 | 1.54 | 0.39 | 51 | 1010.1 |
| 20260508204036 | 59 | 24 | 7.0 | 13.0 | 0.00 | 1.54 | 0.39 | 50 | 1010.1 |
| 20260508203600 | 59 | 344 | 5.0 | 15.0 | 0.00 | 1.54 | 0.39 | 50 | 1010.2 |
| 20260508203041 | 60 | 339 | 8.0 | 15.0 | 0.00 | 1.54 | 0.39 | 49 | 1010.1 |
| 20260508202547 | 60 | 332 | 7.0 | 15.0 | 0.00 | 1.54 | 0.39 | 48 | 1010.1 |
| 20260508202047 | 61 | 353 | 7.0 | 15.0 | 0.00 | 1.54 | 0.39 | 48 | 1010.1 |
| 20260508201528 | 61 | 13 | 7.0 | 14.0 | 0.00 | 1.54 | 0.39 | 47 | 1010.0 |
| 20260508201030 | 61 | 360 | 6.0 | 15.0 | 0.00 | 1.54 | 0.39 | 47 | 1010.1 |
| 20260508200532 | 62 | 329 | 7.0 | 15.0 | 0.00 | 1.54 | 0.39 | 47 | 1010.1 |
| 20260508200040 | 62 | 349 | 6.0 | 15.0 | 0.00 | 1.54 | 0.39 | 46 | 1010.1 |
| 20260508195601 | 62 | 348 | 8.0 | 15.0 | 0.00 | 1.54 | 0.39 | 45 | 1010.1 |
| 20260508195044 | 62 | 6 | 6.0 | 15.0 | 0.00 | 1.54 | 0.39 | 45 | 1010.1 |
| 20260508194546 | 62 | 285 | 8.0 | 15.0 | 0.00 | 1.54 | 0.39 | 45 | 1010.1 |
| 20260508194027 | 62 | 302 | 8.0 | 20.0 | 0.00 | 1.54 | 0.39 | 44 | 1010.1 |
| 20260508193535 | 63 | 354 | 10.0 | 20.0 | 0.00 | 1.54 | 0.39 | 43 | 1010.0 |
| 20260508193039 | 63 | 340 | 8.0 | 19.0 | 0.00 | 1.54 | 0.39 | 43 | 1010.0 |
| 20260508192601 | 63 | 345 | 8.0 | 19.0 | 0.00 | 1.54 | 0.39 | 45 | 1010.0 |
| 20260508192041 | 63 | 12 | 7.0 | 15.0 | 0.00 | 1.54 | 0.39 | 45 | 1010.1 |
| 20260508191543 | 63 | 340 | 5.0 | 18.0 | 0.00 | 1.54 | 0.39 | 45 | 1010.2 |
| 20260508191045 | 63 | 255 | 6.0 | 18.0 | 0.00 | 1.54 | 0.39 | 45 | 1010.1 |
| 20260508190529 | 64 | 342 | 8.0 | 14.0 | 0.00 | 1.54 | 0.39 | 44 | 1010.1 |
| 20260508190033 | 64 | 3 | 8.0 | 16.0 | 0.00 | 1.54 | 0.39 | 44 | 1010.0 |
| 20260508185535 | 64 | 329 | 5.0 | 11.0 | 0.00 | 1.54 | 0.39 | 44 | 1010.0 |
| 20260508185035 | 64 | 357 | 5.0 | 13.0 | 0.00 | 1.54 | 0.39 | 44 | 1010.0 |
| 20260508184556 | 64 | 328 | 5.0 | 14.0 | 0.00 | 1.54 | 0.39 | 43 | 1009.9 |
| 20260508184041 | 64 | 320 | 7.0 | 19.0 | 0.00 | 1.54 | 0.39 | 43 | 1009.9 |
| 20260508183544 | 63 | 319 | 10.0 | 21.0 | 0.00 | 1.54 | 0.39 | 43 | 1009.9 |
| 20260508183108 | 64 | 321 | 9.0 | 21.0 | 0.00 | 1.54 | 0.39 | 43 | 1009.9 |
| 20260508182528 | 64 | 314 | 8.0 | 19.0 | 0.00 | 1.54 | 0.39 | 42 | 1009.8 |
| 20260508182051 | 64 | 333 | 9.0 | 16.0 | 0.00 | 1.54 | 0.39 | 43 | 1009.7 |
| 20260508181533 | 64 | 271 | 10.0 | 16.0 | 0.00 | 1.54 | 0.39 | 43 | 1009.8 |
| 20260508181035 | 64 | 297 | 9.0 | 17.0 | 0.00 | 1.54 | 0.39 | 43 | 1009.7 |
| 20260508180537 | 64 | 293 | 8.0 | 17.0 | 0.00 | 1.54 | 0.39 | 44 | 1009.8 |
| 20260508180044 | 64 | 344 | 8.0 | 16.0 | 0.00 | 1.54 | 0.39 | 43 | 1009.9 |
| 20260508175529 | 64 | 13 | 7.0 | 16.0 | 0.00 | 1.54 | 0.39 | 46 | 1009.7 |
| 20260508175032 | 64 | 355 | 8.0 | 15.0 | 0.00 | 1.54 | 0.39 | 45 | 1009.6 |
| 20260508174533 | 64 | 359 | 6.0 | 14.0 | 0.00 | 1.54 | 0.39 | 48 | 1009.5 |
| 20260508174037 | 64 | 20 | 7.0 | 23.0 | 0.00 | 1.54 | 0.39 | 45 | 1009.5 |
| 20260508173600 | 63 | 285 | 10.0 | 23.0 | 0.00 | 1.54 | 0.39 | 44 | 1009.4 |
| 20260508173041 | 63 | 328 | 10.0 | 17.0 | 0.00 | 1.54 | 0.39 | 45 | 1009.5 |
| 20260508172544 | 63 | 307 | 12.0 | 18.0 | 0.00 | 1.54 | 0.39 | 45 | 1009.4 |
| 20260508172107 | 64 | 349 | 12.0 | 18.0 | 0.00 | 1.54 | 0.39 | 47 | 1009.5 |
| 20260508171528 | 64 | 313 | 6.0 | 15.0 | 0.00 | 1.54 | 0.39 | 50 | 1009.5 |
| 20260508171031 | 63 | 21 | 7.0 | 20.0 | 0.00 | 1.54 | 0.39 | 50 | 1009.5 |
| 20260508170539 | 63 | 359 | 8.0 | 20.0 | 0.00 | 1.54 | 0.39 | 48 | 1009.5 |
| 20260508170026 | 63 | 359 | 7.0 | 16.0 | 0.00 | 1.54 | 0.39 | 52 | 1009.5 |
| 20260508165530 | 63 | 287 | 6.0 | 17.0 | 0.00 | 1.54 | 0.39 | 52 | 1009.4 |
| 20260508165034 | 63 | 342 | 7.0 | 15.0 | 0.00 | 1.54 | 0.39 | 52 | 1009.5 |
| 20260508164556 | 63 | 339 | 7.0 | 14.0 | 0.00 | 1.54 | 0.39 | 53 | 1009.6 |
| 20260508164036 | 63 | 15 | 7.0 | 17.0 | 0.00 | 1.54 | 0.39 | 53 | 1009.6 |
| 20260508163540 | 63 | 9 | 9.0 | 17.0 | 0.00 | 1.54 | 0.39 | 53 | 1009.7 |
| 20260508163043 | 62 | 322 | 9.0 | 22.0 | 0.00 | 1.54 | 0.39 | 55 | 1009.7 |
| 20260508162544 | 62 | 341 | 10.0 | 22.0 | 0.00 | 1.54 | 0.39 | 56 | 1009.8 |
| 20260508162028 | 62 | 321 | 12.0 | 19.0 | 0.00 | 1.54 | 0.39 | 55 | 1009.7 |
| 20260508161529 | 62 | 311 | 11.0 | 19.0 | 0.00 | 1.54 | 0.39 | 55 | 1009.7 |
| 20260508161053 | 62 | 359 | 7.0 | 17.0 | 0.00 | 1.54 | 0.39 | 59 | 1009.8 |
| 20260508160535 | 62 | 360 | 8.0 | 17.0 | 0.00 | 1.54 | 0.39 | 59 | 1009.7 |
| 20260508155602 | 61 | 307 | 8.0 | 17.0 | 0.00 | 1.54 | 0.39 | 59 | 1009.7 |
| 20260508155105 | 61 | 359 | 7.0 | 16.0 | 0.00 | 1.54 | 0.39 | 62 | 1009.9 |
| 20260508154540 | 61 | 339 | 11.0 | 21.0 | 0.00 | 1.54 | 0.39 | 62 | 1010.1 |
| 20260508154101 | 60 | 313 | 10.0 | 21.0 | 0.00 | 1.54 | 0.39 | 64 | 1010.3 |
| 20260508153600 | 61 | 10 | 10.0 | 18.0 | 0.00 | 1.54 | 0.39 | 62 | 1010.3 |
| 20260508152541 | 61 | 325 | 9.0 | 21.0 | 0.00 | 1.54 | 0.39 | 63 | 1010.4 |
| 20260508152042 | 61 | 346 | 7.0 | 15.0 | 0.00 | 1.54 | 0.39 | 65 | 1010.4 |
| 20260508151545 | 60 | 23 | 10.0 | 20.0 | 0.00 | 1.54 | 0.39 | 66 | 1010.4 |
| 20260508151045 | 60 | 359 | 10.0 | 20.0 | 0.00 | 1.54 | 0.39 | 66 | 1010.5 |
| 20260508150526 | 60 | 359 | 9.0 | 17.0 | 0.00 | 1.54 | 0.39 | 66 | 1010.5 |
| 20260508150030 | 60 | 346 | 9.0 | 17.0 | 0.00 | 1.54 | 0.39 | 66 | 1010.5 |
| 20260508145530 | 60 | 350 | 7.0 | 19.0 | 0.00 | 1.54 | 0.39 | 67 | 1010.5 |
| 20260508145031 | 59 | 331 | 10.0 | 22.0 | 0.00 | 1.54 | 0.39 | 67 | 1010.6 |
| 20260508144532 | 59 | 322 | 10.0 | 22.0 | 0.00 | 1.54 | 0.39 | 67 | 1010.9 |
| 20260508144033 | 59 | 296 | 8.0 | 17.0 | 0.00 | 1.54 | 0.39 | 68 | 1010.9 |
| 20260508143535 | 59 | 11 | 8.0 | 17.0 | 0.00 | 1.54 | 0.39 | 69 | 1011.0 |
| 20260508143036 | 59 | 1 | 10.0 | 17.0 | 0.00 | 1.54 | 0.39 | 69 | 1011.0 |
| 20260508142556 | 58 | 340 | 8.0 | 17.0 | 0.00 | 1.54 | 0.39 | 70 | 1010.9 |
| 20260508142039 | 58 | 330 | 7.0 | 16.0 | 0.00 | 1.54 | 0.39 | 69 | 1010.9 |
| 20260508141525 | 58 | 12 | 6.0 | 14.0 | 0.00 | 1.54 | 0.39 | 74 | 1010.9 |
| 20260508141030 | 58 | 329 | 6.0 | 17.0 | 0.00 | 1.54 | 0.39 | 75 | 1011.1 |
| 20260508140533 | 57 | 348 | 9.0 | 17.0 | 0.00 | 1.54 | 0.39 | 74 | 1010.9 |
| 20260508140040 | 57 | 359 | 8.0 | 16.0 | 0.00 | 1.54 | 0.39 | 75 | 1010.9 |
| 20260508135525 | 57 | 314 | 8.0 | 16.0 | 0.00 | 1.54 | 0.39 | 79 | 1010.9 |
| 20260508135029 | 57 | 7 | 8.0 | 21.0 | 0.00 | 1.54 | 0.39 | 79 | 1010.9 |
| 20260508134534 | 56 | 330 | 10.0 | 21.0 | 0.00 | 1.54 | 0.39 | 79 | 1011.0 |
| 20260508134037 | 56 | 27 | 8.0 | 17.0 | 0.00 | 1.54 | 0.39 | 80 | 1011.0 |
| 20260508133540 | 56 | 11 | 9.0 | 15.0 | 0.00 | 1.54 | 0.39 | 81 | 1011.0 |
| 20260508133043 | 56 | 1 | 9.0 | 17.0 | 0.00 | 1.54 | 0.39 | 82 | 1010.9 |
| 20260508132526 | 56 | 295 | 6.0 | 12.0 | 0.00 | 1.54 | 0.39 | 84 | 1011.0 |
| 20260508132035 | 56 | 1 | 6.0 | 16.0 | 0.00 | 1.54 | 0.39 | 85 | 1011.0 |
| 20260508131535 | 55 | 2 | 8.0 | 16.0 | 0.00 | 1.54 | 0.39 | 86 | 1010.9 |
| 20260508131058 | 54 | 337 | 9.0 | 17.0 | 0.00 | 1.54 | 0.39 | 87 | 1011.0 |
| 20260508130521 | 54 | 23 | 7.0 | 17.0 | 0.00 | 1.54 | 0.39 | 87 | 1011.1 |
| 20260508130027 | 54 | 321 | 8.0 | 12.0 | 0.00 | 1.54 | 0.39 | 86 | 1011.1 |
| 20260508125530 | 54 | 325 | 6.0 | 14.0 | 0.00 | 1.54 | 0.39 | 87 | 1011.2 |
| 20260508125053 | 54 | 351 | 5.0 | 14.0 | 0.00 | 1.54 | 0.39 | 87 | 1011.0 |
| 20260508124536 | 54 | 1 | 6.0 | 15.0 | 0.00 | 1.54 | 0.39 | 87 | 1010.8 |
| 20260508124037 | 54 | 356 | 8.0 | 16.0 | 0.00 | 1.54 | 0.39 | 86 | 1010.8 |
| 20260508123601 | 54 | 1 | 7.0 | 17.0 | 0.00 | 1.54 | 0.39 | 87 | 1010.9 |
| 20260508123042 | 54 | 355 | 9.0 | 16.0 | 0.00 | 1.54 | 0.39 | 87 | 1011.1 |
| 20260508122545 | 54 | 359 | 7.0 | 14.0 | 0.00 | 1.54 | 0.39 | 87 | 1011.0 |
| 20260508122025 | 54 | 359 | 5.0 | 11.0 | 0.00 | 1.54 | 0.39 | 88 | 1011.0 |
| 20260508121531 | 54 | 1 | 6.0 | 14.0 | 0.00 | 1.54 | 0.39 | 88 | 1011.0 |
| 20260508121037 | 54 | 25 | 6.0 | 15.0 | 0.00 | 1.54 | 0.39 | 88 | 1011.1 |
| 20260508120546 | 54 | 316 | 6.0 | 14.0 | 0.00 | 1.54 | 0.39 | 88 | 1011.0 |
| 20260508120034 | 54 | 352 | 8.0 | 14.0 | 0.00 | 1.54 | 0.39 | 87 | 1011.0 |
| 20260508115540 | 54 | 360 | 5.0 | 10.0 | 0.00 | 1.54 | 0.39 | 88 | 1010.9 |
| 20260508115046 | 54 | 9 | 5.0 | 13.0 | 0.00 | 1.54 | 0.39 | 88 | 1010.7 |
| 20260508114608 | 54 | 290 | 4.0 | 13.0 | 0.00 | 1.54 | 0.39 | 88 | 1010.6 |
| 20260508114106 | 54 | 11 | 5.0 | 16.0 | 0.00 | 1.54 | 0.39 | 88 | 1010.7 |
| 20260508113528 | 54 | 346 | 7.0 | 14.0 | 0.00 | 1.54 | 0.39 | 88 | 1010.7 |